TimeEDT,TemperatureF,Dew PointF,Humidity,Sea Level PressureIn,VisibilityMPH,Wind Direction,Wind SpeedMPH,Gust SpeedMPH,PrecipitationIn,Events,Conditions,WindDirDegrees,DateUTC
12:53 AM,63.0,54.0,72,30.14,10.0,SW,5.8,-,N/A,,Clear,220,2012-10-05 04:53:00
1:53 AM,62.1,54.0,75,30.14,10.0,SW,4.6,-,N/A,,Clear,220,2012-10-05 05:53:00
2:53 AM,62.1,54.0,75,30.14,10.0,SW,4.6,-,N/A,,Clear,230,2012-10-05 06:53:00
4:53 AM,61.0,54.0,78,30.12,10.0,SW,4.6,-,N/A,,Clear,220,2012-10-05 08:53:00
5:53 AM,59.0,53.1,81,30.12,10.0,Calm,Calm,-,N/A,,Clear,0,2012-10-05 09:53:00
6:53 AM,59.0,53.1,81,30.12,10.0,Calm,Calm,-,N/A,,Clear,0,2012-10-05 10:53:00
7:53 AM,57.9,53.1,84,30.14,8.0,Calm,Calm,-,N/A,,Clear,0,2012-10-05 11:53:00
8:53 AM,63.0,55.9,78,30.12,9.0,SW,5.8,-,N/A,,Clear,220,2012-10-05 12:53:00
9:53 AM,64.9,57.0,75,30.12,9.0,WSW,9.2,-,N/A,,Clear,250,2012-10-05 13:53:00
10:53 AM,66.9,57.0,70,30.11,10.0,SSW,6.9,-,N/A,,Clear,200,2012-10-05 14:53:00
11:53 AM,70.0,57.9,65,30.09,10.0,SW,10.4,-,N/A,,Clear,230,2012-10-05 15:53:00
12:53 PM,72.0,57.9,61,30.08,10.0,West,11.5,18.4,N/A,,Scattered Clouds,260,2012-10-05 16:53:00
1:53 PM,72.0,57.0,59,30.06,10.0,WSW,11.5,18.4,N/A,,Mostly Cloudy,250,2012-10-05 17:53:00
2:53 PM,75.0,57.0,53,30.03,10.0,West,10.4,17.3,N/A,,Mostly Cloudy,280,2012-10-05 18:53:00
3:53 PM,75.0,55.9,51,29.99,10.0,West,10.4,17.3,N/A,,Scattered Clouds,280,2012-10-05 19:53:00
4:53 PM,73.9,55.0,52,29.97,10.0,West,10.4,-,N/A,,Mostly Cloudy,260,2012-10-05 20:53:00
5:53 PM,72.0,55.0,55,29.97,10.0,West,5.8,-,N/A,,Overcast,260,2012-10-05 21:53:00
6:53 PM,70.0,55.9,61,29.96,10.0,Calm,Calm,-,N/A,,Overcast,0,2012-10-05 22:53:00
7:53 PM,70.0,55.0,59,29.93,10.0,SSW,4.6,-,N/A,,Overcast,210,2012-10-05 23:53:00
8:53 PM,61.0,53.1,75,29.96,10.0,NNW,12.7,21.9,N/A,,Overcast,330,2012-10-06 00:53:00
9:51 PM,55.4,51.8,88,29.97,10.0,North,10.4,-,N/A,,Overcast,350,2012-10-06 01:51:00
9:53 PM,55.9,51.1,84,29.97,10.0,North,11.5,-,N/A,,Overcast,350,2012-10-06 01:53:00
10:53 PM,52.0,48.0,86,29.98,10.0,North,11.5,21.9,0.00,Rain,Light Rain,350,2012-10-06 02:53:00
11:53 PM,50.0,45.0,83,29.96,10.0,NNW,8.1,-,N/A,,Overcast,340,2012-10-06 03:53:00